This demonstration page uses our WeatherBlox Daily Observations layout. Learn more.

Left ArrowRight Arrow

38.20091, -84.87328

Hourly Observations for February 4, 2022

Temp ( °F °C ) Dew Point ( °F °C ) Humidity (%) Winds ( mph kmh ) Pressure ( in mb ) Visibility ( mi km ) Precip ( " mm )
12:53 am 00:53 Cloudy 26 -3.3 22 -5.6 84 84 N 10 17 30.10 1019 10 16 0.00 0.00
1:24 am 01:24 Cloudy 26 -3.3 22 -5.6 84 84 N 8 13 30.16 1021 10 16 0.00 0.00
1:53 am 01:53 Cloudy 25 -3.9 22 -5.6 88 88 N 13 20 30.11 1020 8 13 0.00 0.00
2:31 am 02:31 Cloudy with Mist and Fog 25 -3.9 23 -5 92 92 N 8 13 30.16 1021 4 6 0.00 0.00
2:53 am 02:53 Cloudy with Mist and Fog 25 -3.9 22 -5.6 88 88 N 10 17 30.14 1021 4 6 0.00 0.00
3:53 am 03:53 Cloudy with Mist and Fog 25 -3.9 22 -5.6 88 88 N 7 11 30.14 1021 5 8 0.00 0.00
4:40 am 04:40 Cloudy with Light Freezing Rain 25 -3.9 22 -5.6 88 88 N 9 15 30.18 1022 4 6 0.00 0.00
4:53 am 04:53 Cloudy with Light Snow 24 -4.4 22 -5.6 91 91 N 8 13 30.14 1021 4 6 0.01 0.25
5:03 am 05:03 Cloudy with Light Snow 24 -4.4 22 -5.6 91 91 N 5 7 30.19 1022 3 4 0.00 0.00
5:10 am 05:10 Cloudy with Light Snow 24 -4.4 22 -5.6 91 91 N 9 15 30.20 1023 3 4 0.00 0.00
5:26 am 05:26 Cloudy with Light Snow 24 -4.4 21 -6.1 88 88 N 8 13 30.20 1023 3 5 0.00 0.00
5:53 am 05:53 Cloudy with Light Snow 24 -4.4 21 -6.1 88 88 N 8 13 30.18 1022 3 5 0.00 0.00
6:50 am 06:50 Cloudy 25 -4 19 -7 80 80 N 9 15 30.22 1024 8 13 0.01 0.25
6:53 am 06:53 Cloudy 24 -4.4 20 -6.7 84 84 NNW 9 15 30.20 1023 7 11 0.01 0.25
7:24 am 07:24 Cloudy with Light Snow 23 -5 20 -6.7 88 88 N 6 9 30.26 1025 3 5 0.00 0.00
7:33 am 07:33 Cloudy with Light Snow 23 -5 20 -6.7 88 88 N 7 11 30.26 1025 2 3 0.00 0.00
7:53 am 07:53 Cloudy with Light Snow 23 -5 20 -6.7 88 88 NNW 8 13 30.24 1024 2 3 0.00 0.00
8:15 am 08:15 Cloudy with Light Snow 22 -5.6 20 -6.7 92 92 N 10 17 30.29 1026 1 2 0.00 0.00
8:23 am 08:23 Cloudy with Light Snow 22 -5.6 19 -7.2 89 89 N 8 13 30.29 1026 1 2 0.01 0.25
8:37 am 08:37 Mostly Cloudy with Light Snow 23 -5 20 -6.7 88 88 NNW 7 11 30.30 1026 1 1 0.01 0.25
8:53 am 08:53 Cloudy with Light Snow 22 -5.6 20 -6.7 92 92 NW 9 15 30.27 1025 1 1 0.02 0.51
9:16 am 09:16 Cloudy with Light Snow 22 -5.6 19 -7.2 89 89 NNW 7 11 30.31 1026 1 2 0.00 0.00
9:23 am 09:23 Cloudy with Light Snow 22 -5.6 19 -7.2 89 89 NNW 10 17 30.31 1026 1 2 0.00 0.00
9:36 am 09:36 Cloudy with Light Snow 22 -5.6 18 -7.8 85 85 NNW 8 13 30.32 1027 1 1 0.01 0.25
9:48 am 09:48 Cloudy with Light Snow 23 -5 19 -7 86 86 NNW 8 13 30.32 1027 1 2 0.01 0.25
9:53 am 09:53 Cloudy with Light Snow 23 -5 19 -7.2 85 85 NNW 8 13 30.29 1026 1 1 0.01 0.25
10:15 am 10:15 Cloudy with Light Snow 23 -5 19 -7.2 85 85 N 7 11 30.31 1026 1 2 0.01 0.25
10:25 am 10:25 Cloudy with Light Snow 24 -4.4 20 -6.7 84 84 N 6 9 30.32 1027 2 3 0.01 0.25
10:31 am 10:31 Cloudy with Light Snow 24 -4.4 19 -7.2 81 81 N 7 11 30.32 1027 3 5 0.01 0.25
10:53 am 10:53 Cloudy 24 -4.4 18 -7.8 77 77 N 9 15 30.27 1025 9 14 0.01 0.25
11:12 am 11:12 Cloudy 24 -4.4 18 -7.8 77 77 NNE 6 9 30.31 1026 10 16 0.00 0.00
11:22 am 11:22 Cloudy 24 -4.4 18 -7.8 77 77 NNE 8 13 30.32 1027 10 16 0.00 0.00
11:53 am 11:53 Cloudy 24 -4.4 19 -7.2 81 81 NNE 6 9 30.27 1025 10 16 0.00 0.00
12:53 pm 12:53 Cloudy 25 -3.9 20 -6.7 81 81 NNW 6 9 30.28 1025 10 16 0.00 0.00
1:53 pm 13:53 Cloudy 25 -3.9 21 -6.1 85 85 NW 7 11 30.27 1025 10 16 0.00 0.00
2:53 pm 14:53 Cloudy with Mist and Fog 25 -3.9 21 -6.1 85 85 NW 6 9 30.29 1026 5 8 0.00 0.00
3:15 pm 15:15 Cloudy 25 -3.9 21 -6.1 85 85 NW 8 13 30.32 1027 8 13 0.00 0.00
3:50 pm 15:50 Cloudy 27 -3 21 -6 80 80 NW 7 11 30.32 1027 8 13 0.00 0.00
3:53 pm 15:53 Cloudy 26 -3.3 21 -6.1 81 81 NW 8 13 30.30 1026 8 13 0.00 0.00
4:51 pm 16:51 Cloudy 25 -4 21 -6 86 86 WNW 8 13 30.34 1028 10 16 0.00 0.00
4:53 pm 16:53 Cloudy 25 -3.9 22 -5.6 88 88 WNW 6 9 30.31 1027 10 16 0.00 0.00
5:53 pm 17:53 Cloudy 24 -4.4 21 -6.1 88 88 NW 6 9 30.33 1027 10 16 0.00 0.00
6:53 pm 18:53 Cloudy 24 -4.4 21 -6.1 88 88 WNW 6 9 30.35 1028 10 16 0.00 0.00
7:17 pm 19:17 Cloudy 24 -4.4 21 -6.1 88 88 WNW 7 11 30.39 1029 10 16 0.00 0.00
7:45 pm 19:45 Mostly Clear 23 -5 19 -7.2 85 85 WNW 5 7 30.39 1029 10 16 0.00 0.00
7:53 pm 19:53 Mostly Clear 22 -5.6 19 -7.2 89 89 WNW 3 6 30.36 1028 10 16 0.00 0.00
8:08 pm 20:08 Mostly Cloudy 23 -5 19 -7.2 85 85 WNW 7 11 30.40 1029 10 16 0.00 0.00
8:53 pm 20:53 Cloudy 23 -5 19 -7.2 85 85 Calm 30.37 1028 10 16 0.00 0.00
9:53 pm 21:53 Cloudy 24 -4.4 19 -7.2 81 81 W 6 9 30.38 1029 10 16 0.00 0.00
10:27 pm 22:27 Partly Cloudy 22 -5.6 18 -7.8 85 85 WSW 3 6 30.42 1030 10 16 0.00 0.00
10:38 pm 22:38 Mostly Cloudy 22 -5.6 19 -7.2 89 89 W 5 7 30.42 1030 10 16 0.00 0.00
10:53 pm 22:53 Cloudy 23 -5 19 -7.2 85 85 W 8 13 30.40 1029 10 16 0.00 0.00
11:53 pm 23:53 Cloudy 24 -4.4 20 -6.7 84 84 WSW 10 17 30.40 1029 10 16 0.00 0.00

Powered by AerisWeather